Voltar ao catálogo

STARLINK-35712

AtivoComunicaçõesVLEO
NORAD 66215·PAYLOAD·🇺🇸 United States

Lançado Oct 28, 2025 de Vandenberg Space Force Base

Loading…

Próximas Passagens (próximas 24 horas)

TLE

AtualizadoSource: CelesTrak SupGP

Época: Sep 15, 2026, 03:50 UTC

1 66215C 25244K   26258.16020833 -.00025039  00000+0 -73990-3 0  2582
2 66215  53.1585  66.9256 0001182  86.5539 120.4827 15.34398383    13

Acompanhe STARLINK-35712 em tempo real com AllMySat

Download on the App Store